Orbital Elements at Epoch 2459200.5 (2020-Dec-17.0) TDB
Reference: JPL 18 (heliocentric ecliptic J2000)
Element | Value | Uncertainty (1-sigma) | Units |
e | .0942719126026931 | 5.7651e-08 | |
a | 2.567922746974283 | 1.6047e-08 | au |
q | 2.325839758201055 | 1.3969e-07 | au |
i | 1.900151174506732 | 5.084e-06 | deg |
node | 160.8323616836213 | 0.00015656 | deg |
peri | 34.95877699781438 | 0.00015877 | deg |
M | 85.70603080895604 | 2.6799e-05 | deg |
tp | 2458842.667122951896 (2019-Dec-25.16712295) | 0.00011144 | TDB |
period | 1503.042837492555 4.12 | 1.4089e-05 3.857e-08 | d yr |
n | .2395141316135531 | 2.2451e-09 | deg/d |
Q | 2.81000573574751 | 1.756e-08 | au |
|
| | Orbit Determination Parameters
Additional Information
|